Warner Robins, GA

3:50 PM EDT on April 30, 2017 (GMT -0400)
Robins Air Force Base

Weather History for KWRB - December, 2012

Change the Weather History Date:

Tuesday, December 4, 2012

  Actual Average Record
Temperature  
Mean Temperature 62 °F -  
Max Temperature 76 °F 61 °F 78 °F (1998)
Min Temperature 47 °F 38 °F 21 °F (2000)
Degree Days  
Heating Degree Days 4    
Growing Degree Days 12 (Base 50)    
Moisture  
Dew Point 50 °F    
Average Humidity 88    
Maximum Humidity 100    
Minimum Humidity 39    
Precipitation  
Precipitation 0.00 in - - ()
Sea Level Pressure  
Sea Level Pressure 30.29 in    
Wind  
Wind Speed 1 mph (SW)    
Max Wind Speed 9 mph    
Max Gust Speed -    
Visibility 5 miles    
Events Fog    
Averages and records for this station are not official NWS values.
T = Trace of Precipitation, MM = Missing Value Source: NWS Daily Summary

Daily Weather History Graph

Daily Weather History Graph

Search for Another Location

Airport or City:

Trip Planner

Search our weather history database for the weather conditions in past years. The results will help you decide how hot, cold, wet, or windy it might be!

Date:

Astronomy

Dec. 04, 2012 Rise Set
Actual Time 7:21 AM EST 5:28 PM EST
Civil Twilight 6:54 AM EST 5:55 PM EST
Nautical Twilight 6:23 AM EST 6:25 PM EST
Astronomical Twilight 5:53 AM EST 6:55 PM EST
Moon 11:02 PM EST (12/4) 11:25 AM EST (12/4)
Length of Visible Light 11h 00m
Length of Day
10h 06m
Waning Gibbous, 69% of the Moon is Illuminated
Dec 4
Waning Gibbous
Dec 6
Last Quarter
Dec 13
New
Dec 20
First Quarter
Dec 28
Full

Hourly Weather History & Observations

Time (EST) Temp. Dew Point Humidity Pressure Visibility Wind Dir Wind Speed Gust Speed Precip Events Conditions
12:55 AM 49.5 °F 48.0 °F 95% 30.27 in 10.0 mi Calm Calm - N/A   Clear
1:55 AM 49.3 °F 47.8 °F 95% 30.27 in 10.0 mi Calm Calm - N/A   Scattered Clouds
2:55 AM 48.6 °F 47.5 °F 96% 30.27 in 10.0 mi Calm Calm - N/A   Clear
3:55 AM 47.3 °F 46.2 °F 96% 30.27 in 10.0 mi Calm Calm - N/A   Clear
4:07 AM 48.2 °F 46.4 °F 93% 30.27 in 10.0 mi Calm Calm - N/A   Partly Cloudy
4:16 AM 48.2 °F 46.4 °F 93% 30.27 in 10.0 mi Calm Calm - N/A   Mostly Cloudy
4:26 AM 48.2 °F 46.4 °F 93% 30.27 in 10.0 mi Calm Calm - N/A   Mostly Cloudy
4:39 AM 48.2 °F 46.4 °F 93% 30.27 in 0.8 mi Calm Calm - N/A   Mist
4:40 AM 48.2 °F 46.4 °F 93% 30.27 in 0.8 mi Calm Calm - N/A   Mist
4:42 AM 48.2 °F 46.4 °F 93% 30.27 in 0.5 mi Calm Calm - N/A Fog Fog
4:44 AM 48.2 °F 46.4 °F 93% 30.27 in 0.5 mi Calm Calm - N/A Fog Fog
4:55 AM 48.0 °F 47.1 °F 97% 30.27 in 0.5 mi Calm Calm - N/A Fog Fog
5:09 AM 48.2 °F 48.2 °F 100% 30.27 in 0.2 mi Calm Calm - N/A Fog Fog
5:55 AM 49.1 °F 48.6 °F 98% 30.28 in 0.2 mi Calm Calm - N/A Fog Fog
6:12 AM 50.0 °F 48.2 °F 94% 30.29 in 0.5 mi Calm Calm - N/A Fog Fog
6:18 AM 50.0 °F 48.2 °F 94% 30.29 in 0.8 mi Calm Calm - N/A   Mist
6:24 AM 50.0 °F 48.2 °F 94% 30.30 in 1.0 mi NNW 3.5 mph - N/A   Overcast
6:38 AM 50.0 °F 48.2 °F 94% 30.30 in 0.8 mi NW 3.5 mph - N/A   Overcast
6:43 AM 50.0 °F 48.2 °F 94% 30.31 in 0.5 mi NW 3.5 mph - N/A Fog Fog
6:55 AM 49.6 °F 49.1 °F 98% 30.31 in 0.5 mi Calm Calm - N/A Fog Fog
7:04 AM 50.0 °F 50.0 °F 100% 30.31 in 0.8 mi Calm Calm - N/A   Mist
7:13 AM 50.0 °F 50.0 °F 100% 30.31 in 0.5 mi Calm Calm - N/A Fog Fog
7:16 AM 50.0 °F 50.0 °F 100% 30.32 in 0.5 mi Calm Calm - N/A Fog Fog
7:17 AM 50.0 °F 50.0 °F 100% 30.32 in 0.8 mi Calm Calm - N/A   Overcast
7:26 AM 50.0 °F 50.0 °F 100% 30.32 in 3.0 mi Calm Calm - N/A   Overcast
7:55 AM 50.9 °F 50.5 °F 99% 30.32 in 4.0 mi Calm Calm - N/A   Overcast
7:58 AM 51.8 °F 50.0 °F 94% 30.33 in 2.5 mi Calm Calm - N/A   Overcast
8:01 AM 51.8 °F 50.0 °F 94% 30.32 in 2.0 mi Calm Calm - N/A   Overcast
8:03 AM 51.8 °F 50.0 °F 94% 30.32 in 1.8 mi Calm Calm - N/A   Overcast
8:11 AM 51.8 °F 50.0 °F 94% 30.33 in 2.0 mi Calm Calm - N/A   Overcast
8:13 AM 51.8 °F 50.0 °F 94% 30.33 in 2.5 mi Calm Calm - N/A   Overcast
8:15 AM 51.8 °F 51.8 °F 100% 30.33 in 3.0 mi Calm Calm - N/A   Overcast
8:55 AM 52.7 °F 52.5 °F 99% 30.34 in 10.0 mi Calm Calm - N/A   Overcast
9:28 AM 53.6 °F 53.6 °F 100% 30.35 in 10.0 mi Calm Calm - N/A   Overcast
9:55 AM 56.1 °F 55.9 °F 99% 30.35 in 10.0 mi Calm Calm - N/A   Mostly Cloudy
10:55 AM 62.4 °F 61.9 °F 98% 30.35 in 10.0 mi Calm Calm - N/A   Mostly Cloudy
11:55 AM 68.0 °F 65.8 °F 93% 30.32 in 10.0 mi WSW 9.2 mph - N/A   Partly Cloudy
12:55 PM 73.4 °F 58.8 °F 60% 30.28 in 10.0 mi SW 8.1 mph - N/A   Clear
1:55 PM 74.5 °F 54.9 °F 50% 30.25 in 10.0 mi South 5.8 mph - N/A   Mostly Cloudy
2:55 PM 76.1 °F 50.7 °F 41% 30.23 in 10.0 mi SSW 8.1 mph - N/A   Clear
3:55 PM 75.9 °F 49.1 °F 39% 30.23 in 10.0 mi SSW 4.6 mph - N/A   Clear
4:55 PM 73.8 °F 50.4 °F 44% 30.23 in 10.0 mi SW 5.8 mph - N/A   Clear
5:55 PM 66.6 °F 52.0 °F 59% 30.23 in 10.0 mi Calm Calm - N/A   Mostly Cloudy
6:55 PM 63.1 °F 52.9 °F 69% 30.23 in 10.0 mi Calm Calm - N/A   Overcast
7:55 PM 61.0 °F 52.5 °F 74% 30.24 in 10.0 mi Calm Calm - N/A   Scattered Clouds
8:55 PM 58.1 °F 52.3 °F 81% 30.24 in 10.0 mi Calm Calm - N/A   Mostly Cloudy
9:55 PM 57.2 °F 52.0 °F 83% 30.24 in 10.0 mi SE 3.5 mph - N/A   Mostly Cloudy
10:55 PM 56.8 °F 52.2 °F 84% 30.25 in 10.0 mi Calm Calm - N/A   Overcast